Year,Month,Day,Hour,Minute,Value (Times are PST for temperature in C)
2019,04,24,00,00,7.20
2019,04,24,00,01,7.20
2019,04,24,00,02,7.10
2019,04,24,00,03,7.10
2019,04,24,00,04,7.10
2019,04,24,00,05,7.10
2019,04,24,00,06,7.10
2019,04,24,00,07,7.10
2019,04,24,00,08,7.10
2019,04,24,00,09,7.10
2019,04,24,00,10,7.10
2019,04,24,00,11,7.00
2019,04,24,00,12,7.00
2019,04,24,00,13,7.00
2019,04,24,00,14,7.00
2019,04,24,00,15,7.00
2019,04,24,00,16,7.00
2019,04,24,00,17,7.00
2019,04,24,00,18,7.00
2019,04,24,00,19,7.00
2019,04,24,00,20,7.00
2019,04,24,00,21,7.00
2019,04,24,00,22,7.00
2019,04,24,00,23,7.00
2019,04,24,00,24,7.00
2019,04,24,00,25,7.00
2019,04,24,00,26,7.00
2019,04,24,00,27,7.00
2019,04,24,00,28,7.00
2019,04,24,00,29,7.00
2019,04,24,00,30,7.00
2019,04,24,00,31,7.00
2019,04,24,00,32,7.00
2019,04,24,00,33,7.00
2019,04,24,00,34,7.00
2019,04,24,00,35,7.00
2019,04,24,00,36,7.00
2019,04,24,00,37,7.00
2019,04,24,00,38,7.00
2019,04,24,00,39,7.00
2019,04,24,00,40,7.00
2019,04,24,00,41,7.00
2019,04,24,00,42,7.00
2019,04,24,00,43,7.00
2019,04,24,00,44,7.00
2019,04,24,00,45,7.00
2019,04,24,00,46,7.00
2019,04,24,00,47,7.00
2019,04,24,00,48,6.90
2019,04,24,00,49,7.00
2019,04,24,00,50,7.00
2019,04,24,00,51,7.00
2019,04,24,00,52,6.90
2019,04,24,00,53,6.90
2019,04,24,00,54,6.90
2019,04,24,00,55,6.90
2019,04,24,00,56,6.90
2019,04,24,00,57,7.00
2019,04,24,00,58,7.00
2019,04,24,00,59,7.00
2019,04,24,01,00,7.00
2019,04,24,01,01,7.00
2019,04,24,01,02,7.00
2019,04,24,01,03,6.90
2019,04,24,01,04,7.00
2019,04,24,01,05,7.00
2019,04,24,01,06,7.00
2019,04,24,01,07,7.00
2019,04,24,01,08,7.00
2019,04,24,01,09,7.00
2019,04,24,01,10,7.00
2019,04,24,01,11,7.00
2019,04,24,01,12,7.00
2019,04,24,01,13,7.00
2019,04,24,01,14,7.00
2019,04,24,01,15,7.00
2019,04,24,01,16,7.00
2019,04,24,01,17,7.00
2019,04,24,01,18,7.00
2019,04,24,01,19,7.00
2019,04,24,01,20,7.00
2019,04,24,01,21,7.00
2019,04,24,01,22,7.00
2019,04,24,01,23,6.90
2019,04,24,01,24,6.90
2019,04,24,01,25,6.90
2019,04,24,01,26,6.90
2019,04,24,01,27,6.90
2019,04,24,01,28,6.80
2019,04,24,01,29,6.80
2019,04,24,01,30,6.80
2019,04,24,01,31,6.80
2019,04,24,01,32,6.80
2019,04,24,01,33,6.80
2019,04,24,01,34,6.80
2019,04,24,01,35,6.70
2019,04,24,01,36,6.70
2019,04,24,01,37,6.70
2019,04,24,01,38,6.70
2019,04,24,01,39,6.60
2019,04,24,01,40,6.60
2019,04,24,01,41,6.60
2019,04,24,01,42,6.60
2019,04,24,01,43,6.50
2019,04,24,01,44,6.50
2019,04,24,01,45,6.50
2019,04,24,01,46,6.40
2019,04,24,01,47,6.40
2019,04,24,01,48,6.40
2019,04,24,01,49,6.40
2019,04,24,01,50,6.40
2019,04,24,01,51,6.30
2019,04,24,01,52,6.30
2019,04,24,01,53,6.30
2019,04,24,01,54,6.30
2019,04,24,01,55,6.30
2019,04,24,01,56,6.20
2019,04,24,01,57,6.20
2019,04,24,01,58,6.20
2019,04,24,01,59,6.20
2019,04,24,02,00,6.10
2019,04,24,02,01,6.10
2019,04,24,02,02,6.10
2019,04,24,02,03,6.10
2019,04,24,02,04,6.10
2019,04,24,02,05,6.00
2019,04,24,02,06,6.00
2019,04,24,02,07,6.00
2019,04,24,02,08,6.00
2019,04,24,02,09,5.90
2019,04,24,02,10,5.90
2019,04,24,02,11,5.90
2019,04,24,02,12,5.90
2019,04,24,02,13,5.90
2019,04,24,02,14,5.80
2019,04,24,02,15,5.80
2019,04,24,02,16,5.80
2019,04,24,02,17,5.80
2019,04,24,02,18,5.70
2019,04,24,02,19,5.70
2019,04,24,02,20,5.70
2019,04,24,02,21,5.70
2019,04,24,02,22,5.70
2019,04,24,02,23,5.60
2019,04,24,02,24,5.60
2019,04,24,02,25,5.60
2019,04,24,02,26,5.60
2019,04,24,02,27,5.60
2019,04,24,02,28,5.50
2019,04,24,02,29,5.50
2019,04,24,02,30,5.40
2019,04,24,02,31,5.40
2019,04,24,02,32,5.40
2019,04,24,02,33,5.40
2019,04,24,02,34,5.40
2019,04,24,02,35,5.30
2019,04,24,02,36,5.30
2019,04,24,02,37,5.30
2019,04,24,02,38,5.30
2019,04,24,02,39,5.30
2019,04,24,02,40,5.20
2019,04,24,02,41,5.20
2019,04,24,02,42,5.20
2019,04,24,02,43,5.20
2019,04,24,02,44,5.20
2019,04,24,02,45,5.20
2019,04,24,02,46,5.20
2019,04,24,02,47,5.20
2019,04,24,02,48,5.20
2019,04,24,02,49,5.20
2019,04,24,02,50,5.20
2019,04,24,02,51,5.20
2019,04,24,02,52,5.10
2019,04,24,02,53,5.10
2019,04,24,02,54,5.10
2019,04,24,02,55,5.10
2019,04,24,02,56,5.00
2019,04,24,02,57,5.00
2019,04,24,02,58,5.00
2019,04,24,02,59,4.90
2019,04,24,03,00,4.90
2019,04,24,03,01,4.90
2019,04,24,03,02,4.90
2019,04,24,03,03,4.80
2019,04,24,03,04,4.80
2019,04,24,03,05,4.80
2019,04,24,03,06,4.70
2019,04,24,03,07,4.70
2019,04,24,03,08,4.70
2019,04,24,03,09,4.70
2019,04,24,03,10,4.60
2019,04,24,03,11,4.60
2019,04,24,03,12,4.60
2019,04,24,03,13,4.60
2019,04,24,03,14,4.50
2019,04,24,03,15,4.50
2019,04,24,03,16,4.50
2019,04,24,03,17,4.50
2019,04,24,03,18,4.50
2019,04,24,03,19,4.50
2019,04,24,03,20,4.50
2019,04,24,03,21,4.50
2019,04,24,03,22,4.50
2019,04,24,03,23,4.50
2019,04,24,03,24,4.50
2019,04,24,03,25,4.50
2019,04,24,03,26,4.50
2019,04,24,03,27,4.50
2019,04,24,03,28,4.50
2019,04,24,03,29,4.50
2019,04,24,03,30,4.50
2019,04,24,03,31,4.50
2019,04,24,03,32,4.50
2019,04,24,03,33,4.50
2019,04,24,03,34,4.50
2019,04,24,03,35,4.50
2019,04,24,03,36,4.50
2019,04,24,03,37,4.50
2019,04,24,03,38,4.50
2019,04,24,03,39,4.50
2019,04,24,03,40,4.50
2019,04,24,03,41,4.50
2019,04,24,03,42,4.50
2019,04,24,03,43,4.50
2019,04,24,03,44,4.50
2019,04,24,03,45,4.50
2019,04,24,03,46,4.40
2019,04,24,03,47,4.50
2019,04,24,03,48,4.40
2019,04,24,03,49,4.40
2019,04,24,03,50,4.40
2019,04,24,03,51,4.40
2019,04,24,03,52,4.40
2019,04,24,03,53,4.40
2019,04,24,03,54,4.40
2019,04,24,03,55,4.40
2019,04,24,03,56,4.40
2019,04,24,03,57,4.40
2019,04,24,03,58,4.40
2019,04,24,03,59,4.40
2019,04,24,04,00,4.40
2019,04,24,04,01,4.40
2019,04,24,04,02,4.40
2019,04,24,04,03,4.40
2019,04,24,04,04,4.40
2019,04,24,04,05,4.40
2019,04,24,04,06,4.40
2019,04,24,04,07,4.40
2019,04,24,04,08,4.40
2019,04,24,04,09,4.40
2019,04,24,04,10,4.40
2019,04,24,04,11,4.40
2019,04,24,04,12,4.40
2019,04,24,04,13,4.40
2019,04,24,04,14,4.40
2019,04,24,04,15,4.40
2019,04,24,04,16,4.40
2019,04,24,04,17,4.40
2019,04,24,04,18,4.40
2019,04,24,04,19,4.40
2019,04,24,04,20,4.40
2019,04,24,04,21,4.40
2019,04,24,04,22,4.40
2019,04,24,04,23,4.40
2019,04,24,04,24,4.40
2019,04,24,04,25,4.40
2019,04,24,04,26,4.40
2019,04,24,04,27,4.40
2019,04,24,04,28,4.30
2019,04,24,04,29,4.40
2019,04,24,04,30,4.40
2019,04,24,04,31,4.40
2019,04,24,04,32,4.40
2019,04,24,04,33,4.40
2019,04,24,04,34,4.40
2019,04,24,04,35,4.40
2019,04,24,04,36,4.40
2019,04,24,04,37,4.40
2019,04,24,04,38,4.40
2019,04,24,04,39,4.40
2019,04,24,04,40,4.40
2019,04,24,04,41,4.40
2019,04,24,04,42,4.40
2019,04,24,04,43,4.40
2019,04,24,04,44,4.30
2019,04,24,04,45,4.30
2019,04,24,04,46,4.30
2019,04,24,04,47,4.20
2019,04,24,04,48,4.20
2019,04,24,04,49,4.10
2019,04,24,04,50,4.10
2019,04,24,04,51,4.00
2019,04,24,04,52,4.00
2019,04,24,04,53,3.90
2019,04,24,04,54,3.90
2019,04,24,04,55,3.90
2019,04,24,04,56,3.80
2019,04,24,04,57,3.80
2019,04,24,04,58,3.80
2019,04,24,04,59,3.80
2019,04,24,05,00,3.70
2019,04,24,05,01,3.70
2019,04,24,05,02,3.70
2019,04,24,05,03,3.70
2019,04,24,05,04,3.70
2019,04,24,05,05,3.60
2019,04,24,05,06,3.60
2019,04,24,05,07,3.60
2019,04,24,05,08,3.60
2019,04,24,05,09,3.60
2019,04,24,05,10,3.60
2019,04,24,05,11,3.60
2019,04,24,05,12,3.50
2019,04,24,05,13,3.50
2019,04,24,05,14,3.50
2019,04,24,05,15,3.60
2019,04,24,05,16,3.60
2019,04,24,05,17,3.60
2019,04,24,05,18,3.60
2019,04,24,05,19,3.60
2019,04,24,05,20,3.60
2019,04,24,05,21,3.60
2019,04,24,05,22,3.60
2019,04,24,05,23,3.60
2019,04,24,05,24,3.60
2019,04,24,05,25,3.60
2019,04,24,05,26,3.60
2019,04,24,05,27,3.60
2019,04,24,05,28,3.60
2019,04,24,05,29,3.60
2019,04,24,05,30,3.60
2019,04,24,05,31,3.60
2019,04,24,05,32,3.60
2019,04,24,05,33,3.60
2019,04,24,05,34,3.50
2019,04,24,05,35,3.50
2019,04,24,05,36,3.50
2019,04,24,05,37,3.40
2019,04,24,05,38,3.40
2019,04,24,05,39,3.40
2019,04,24,05,40,3.40
2019,04,24,05,41,3.40
2019,04,24,05,42,3.30
2019,04,24,05,43,3.30
2019,04,24,05,44,3.30
2019,04,24,05,45,3.30
2019,04,24,05,46,3.30
2019,04,24,05,47,3.30
2019,04,24,05,48,3.30
2019,04,24,05,49,3.20
2019,04,24,05,50,3.20
2019,04,24,05,51,3.20
2019,04,24,05,52,3.20
2019,04,24,05,53,3.20
2019,04,24,05,54,3.20
2019,04,24,05,55,3.20
2019,04,24,05,56,3.10
2019,04,24,05,57,3.10
2019,04,24,05,58,3.10
2019,04,24,05,59,3.10
2019,04,24,06,00,3.10
2019,04,24,06,01,3.10
2019,04,24,06,02,3.00
2019,04,24,06,03,3.00
2019,04,24,06,04,2.90
2019,04,24,06,05,2.90
2019,04,24,06,06,2.90
2019,04,24,06,07,2.90
2019,04,24,06,08,2.90
2019,04,24,06,09,2.90
2019,04,24,06,10,2.90
2019,04,24,06,11,2.90
2019,04,24,06,12,2.80
2019,04,24,06,13,2.80
2019,04,24,06,14,2.80
2019,04,24,06,15,2.80
2019,04,24,06,16,2.80
2019,04,24,06,17,2.80
2019,04,24,06,18,2.80
2019,04,24,06,19,2.80
2019,04,24,06,20,2.80
2019,04,24,06,21,2.80
2019,04,24,06,22,2.80
2019,04,24,06,23,2.80
2019,04,24,06,24,2.80
2019,04,24,06,25,2.80
2019,04,24,06,26,2.70
2019,04,24,06,27,2.80
2019,04,24,06,28,2.80
2019,04,24,06,29,2.80
2019,04,24,06,30,2.80
2019,04,24,06,31,2.80
2019,04,24,06,32,2.90
2019,04,24,06,33,2.90
2019,04,24,06,34,2.90
2019,04,24,06,35,2.90
2019,04,24,06,36,2.90
2019,04,24,06,37,2.90
2019,04,24,06,38,2.90
2019,04,24,06,39,2.90
2019,04,24,06,40,3.00
2019,04,24,06,41,3.00
2019,04,24,06,42,3.00
2019,04,24,06,43,3.10
2019,04,24,06,44,3.20
2019,04,24,06,45,3.30
2019,04,24,06,46,3.30
2019,04,24,06,47,3.40
2019,04,24,06,48,3.40
2019,04,24,06,49,3.40
2019,04,24,06,50,3.50
2019,04,24,06,51,3.50
2019,04,24,06,52,3.60
2019,04,24,06,53,3.60
2019,04,24,06,54,3.70
2019,04,24,06,55,3.70
2019,04,24,06,56,3.80
2019,04,24,06,57,3.90
2019,04,24,06,58,4.00
2019,04,24,06,59,4.00
2019,04,24,07,00,4.10
2019,04,24,07,01,4.20
2019,04,24,07,02,4.30
2019,04,24,07,03,4.40
2019,04,24,07,04,4.50
2019,04,24,07,05,4.70
2019,04,24,07,06,4.80
2019,04,24,07,07,4.90
2019,04,24,07,08,5.00
2019,04,24,07,09,5.00
2019,04,24,07,10,5.10
2019,04,24,07,11,5.20
2019,04,24,07,12,5.30
2019,04,24,07,13,5.30
2019,04,24,07,14,5.40
2019,04,24,07,15,5.40
2019,04,24,07,16,5.50
2019,04,24,07,17,5.70
2019,04,24,07,18,5.70
2019,04,24,07,19,5.80
2019,04,24,07,20,5.90
2019,04,24,07,21,6.00
2019,04,24,07,22,6.10
2019,04,24,07,23,6.20
2019,04,24,07,24,6.30
2019,04,24,07,25,6.30
2019,04,24,07,26,6.40
2019,04,24,07,27,6.50
2019,04,24,07,28,6.60
2019,04,24,07,29,6.70
2019,04,24,07,30,6.70
2019,04,24,07,31,6.80
2019,04,24,07,32,6.90
2019,04,24,07,33,6.90
2019,04,24,07,34,7.00
2019,04,24,07,35,7.00
2019,04,24,07,36,7.10
2019,04,24,07,37,7.20
2019,04,24,07,38,7.20
2019,04,24,07,39,7.30
2019,04,24,07,40,7.40
2019,04,24,07,41,7.40
2019,04,24,07,42,7.50
2019,04,24,07,43,7.60
2019,04,24,07,44,7.60
2019,04,24,07,45,7.70
2019,04,24,07,46,7.70
2019,04,24,07,47,7.80
2019,04,24,07,48,7.80
2019,04,24,07,49,7.90
2019,04,24,07,50,7.90
2019,04,24,07,51,8.00
2019,04,24,07,52,8.00
2019,04,24,07,53,8.10
2019,04,24,07,54,8.20
2019,04,24,07,55,8.20
2019,04,24,07,56,8.20
2019,04,24,07,57,8.30
2019,04,24,07,58,8.30
2019,04,24,07,59,8.40
2019,04,24,08,00,8.40
2019,04,24,08,01,8.40
2019,04,24,08,02,8.40
2019,04,24,08,03,8.50
2019,04,24,08,04,8.50
2019,04,24,08,05,8.40
2019,04,24,08,06,8.50
2019,04,24,08,07,8.50
2019,04,24,08,08,8.50
2019,04,24,08,09,8.50
2019,04,24,08,10,8.50
2019,04,24,08,11,8.60
2019,04,24,08,12,8.60
2019,04,24,08,13,8.60
2019,04,24,08,14,8.70
2019,04,24,08,15,8.70
2019,04,24,08,16,8.80
2019,04,24,08,17,8.80
2019,04,24,08,18,8.80
2019,04,24,08,19,8.90
2019,04,24,08,20,8.80
2019,04,24,08,21,8.90
2019,04,24,08,22,8.90
2019,04,24,08,23,8.90
2019,04,24,08,24,9.00
2019,04,24,08,25,9.10
2019,04,24,08,26,9.10
2019,04,24,08,27,9.20
2019,04,24,08,28,9.20
2019,04,24,08,29,9.20
2019,04,24,08,30,9.30
2019,04,24,08,31,9.30
2019,04,24,08,32,9.40
2019,04,24,08,33,9.50
2019,04,24,08,34,9.60
2019,04,24,08,35,9.60
2019,04,24,08,36,9.70
2019,04,24,08,37,9.80
2019,04,24,08,38,9.90
2019,04,24,08,39,9.90
2019,04,24,08,40,10.00
2019,04,24,08,41,10.00
2019,04,24,08,42,10.10
2019,04,24,08,43,10.10
2019,04,24,08,44,10.10
2019,04,24,08,45,10.20
2019,04,24,08,46,10.20
2019,04,24,08,47,10.30
2019,04,24,08,48,10.30
2019,04,24,08,49,10.30
2019,04,24,08,50,10.30
2019,04,24,08,51,10.30
2019,04,24,08,52,10.40
2019,04,24,08,53,10.40
2019,04,24,08,54,10.40
2019,04,24,08,55,10.50
2019,04,24,08,56,10.50
2019,04,24,08,57,10.40
2019,04,24,08,58,10.50
2019,04,24,08,59,10.40
2019,04,24,09,00,10.50
2019,04,24,09,01,10.50
2019,04,24,09,02,10.50
2019,04,24,09,03,10.60
2019,04,24,09,04,10.60
2019,04,24,09,05,10.70
2019,04,24,09,06,10.70
2019,04,24,09,07,10.70
2019,04,24,09,08,10.70
2019,04,24,09,09,10.70
2019,04,24,09,10,10.70
2019,04,24,09,11,10.70
2019,04,24,09,12,10.70
2019,04,24,09,13,10.70
2019,04,24,09,14,10.80
2019,04,24,09,15,10.80
2019,04,24,09,16,10.80
2019,04,24,09,17,10.80
2019,04,24,09,18,10.80
2019,04,24,09,19,10.90
2019,04,24,09,20,10.90
2019,04,24,09,21,11.00
2019,04,24,09,22,11.10
2019,04,24,09,23,11.10
2019,04,24,09,24,11.20
2019,04,24,09,25,11.20
2019,04,24,09,26,11.10
2019,04,24,09,27,11.10
2019,04,24,09,28,11.20
2019,04,24,09,29,11.30
2019,04,24,09,30,11.40
2019,04,24,09,31,11.50
2019,04,24,09,32,11.50
2019,04,24,09,33,11.50
2019,04,24,09,34,11.50
2019,04,24,09,35,11.50
2019,04,24,09,36,11.50
2019,04,24,09,37,11.60
2019,04,24,09,38,11.60
2019,04,24,09,39,11.70
2019,04,24,09,40,11.60
2019,04,24,09,41,11.60
2019,04,24,09,42,11.60
2019,04,24,09,43,11.60
2019,04,24,09,44,11.60
2019,04,24,09,45,11.60
2019,04,24,09,46,11.70
2019,04,24,09,47,11.70
2019,04,24,09,48,11.70
2019,04,24,09,49,11.80
2019,04,24,09,50,11.80
2019,04,24,09,51,11.90
2019,04,24,09,52,11.80
2019,04,24,09,53,11.80
2019,04,24,09,54,11.80
2019,04,24,09,55,11.70
2019,04,24,09,56,11.70
2019,04,24,09,57,11.60
2019,04,24,09,58,11.60
2019,04,24,09,59,11.60
2019,04,24,10,00,11.60
2019,04,24,10,01,11.70
2019,04,24,10,02,11.70
2019,04,24,10,03,11.70
2019,04,24,10,04,11.70
2019,04,24,10,05,11.70
2019,04,24,10,06,11.70
2019,04,24,10,07,11.70
2019,04,24,10,08,11.70
2019,04,24,10,09,11.60
2019,04,24,10,10,11.60
2019,04,24,10,11,11.70
2019,04,24,10,12,11.60
2019,04,24,10,13,11.50
2019,04,24,10,14,11.50
2019,04,24,10,15,11.40
2019,04,24,10,16,11.40
2019,04,24,10,17,11.40
2019,04,24,10,18,11.30
2019,04,24,10,19,11.30
2019,04,24,10,20,11.20
2019,04,24,10,21,11.20
2019,04,24,10,22,11.20
2019,04,24,10,23,11.30
2019,04,24,10,24,11.30
2019,04,24,10,25,11.40
2019,04,24,10,26,11.50
2019,04,24,10,27,11.50
2019,04,24,10,28,11.50
2019,04,24,10,29,11.50
2019,04,24,10,30,11.50
2019,04,24,10,31,11.50
2019,04,24,10,32,11.50
2019,04,24,10,33,11.60
2019,04,24,10,34,11.50
2019,04,24,10,35,11.50
2019,04,24,10,36,11.50
2019,04,24,10,37,11.40
2019,04,24,10,38,11.40
2019,04,24,10,39,11.40
2019,04,24,10,40,11.40
2019,04,24,10,41,11.50
2019,04,24,10,42,11.50
2019,04,24,10,43,11.60
2019,04,24,10,44,11.60
2019,04,24,10,45,11.70
2019,04,24,10,46,11.80
2019,04,24,10,47,11.70
2019,04,24,10,48,11.70
2019,04,24,10,49,11.60
2019,04,24,10,50,11.50
2019,04,24,10,51,11.60
2019,04,24,10,52,11.60
2019,04,24,10,53,11.70
2019,04,24,10,54,11.70
2019,04,24,10,55,11.70
2019,04,24,10,56,11.70
2019,04,24,10,57,11.70
2019,04,24,10,58,11.70
2019,04,24,10,59,11.70
2019,04,24,11,00,11.60
2019,04,24,11,01,11.60
2019,04,24,11,02,11.70
2019,04,24,11,03,11.70
2019,04,24,11,04,11.80
2019,04,24,11,05,11.90
2019,04,24,11,06,12.00
2019,04,24,11,07,12.00
2019,04,24,11,08,12.00
2019,04,24,11,09,12.00
2019,04,24,11,10,11.90
2019,04,24,11,11,11.90
2019,04,24,11,12,11.80
2019,04,24,11,13,11.80
2019,04,24,11,14,11.90
2019,04,24,11,15,12.00
2019,04,24,11,16,12.10
2019,04,24,11,17,12.20
2019,04,24,11,18,12.20
2019,04,24,11,19,12.20
2019,04,24,11,20,12.20
2019,04,24,11,21,12.20
2019,04,24,11,22,12.30
2019,04,24,11,23,12.40
2019,04,24,11,24,12.40
2019,04,24,11,25,12.40
2019,04,24,11,26,12.40
2019,04,24,11,27,12.40
2019,04,24,11,28,12.30
2019,04,24,11,29,12.20
2019,04,24,11,30,12.10
2019,04,24,11,31,12.00
2019,04,24,11,32,12.00
2019,04,24,11,33,12.00
2019,04,24,11,34,12.00
2019,04,24,11,35,12.00
2019,04,24,11,36,12.10
2019,04,24,11,37,12.10
2019,04,24,11,38,12.20
2019,04,24,11,39,12.20
2019,04,24,11,40,12.20
2019,04,24,11,41,12.30
2019,04,24,11,42,12.30
2019,04,24,11,43,12.30
2019,04,24,11,44,12.40
2019,04,24,11,45,12.50
2019,04,24,11,46,12.50
2019,04,24,11,47,12.40
2019,04,24,11,48,12.40
2019,04,24,11,49,12.30
2019,04,24,11,50,12.30
2019,04,24,11,51,12.40
2019,04,24,11,52,12.30
2019,04,24,11,53,12.20
2019,04,24,11,54,12.10
2019,04,24,11,55,12.10
2019,04,24,11,56,12.00
2019,04,24,11,57,11.90
2019,04,24,11,58,11.90
2019,04,24,11,59,11.90
2019,04,24,12,00,11.90
2019,04,24,12,01,11.90
2019,04,24,12,02,12.00
2019,04,24,12,03,12.00
2019,04,24,12,04,12.10
2019,04,24,12,05,12.10
2019,04,24,12,06,12.20
2019,04,24,12,07,12.20
2019,04,24,12,08,12.20
2019,04,24,12,09,12.20
2019,04,24,12,10,12.10
2019,04,24,12,11,12.10
2019,04,24,12,12,12.10
2019,04,24,12,13,12.10
2019,04,24,12,14,12.20
2019,04,24,12,15,12.20
2019,04,24,12,16,12.30
2019,04,24,12,17,12.20
2019,04,24,12,18,12.10
2019,04,24,12,19,12.00
2019,04,24,12,20,12.00
2019,04,24,12,21,12.00
2019,04,24,12,22,12.00
2019,04,24,12,23,12.00
2019,04,24,12,24,12.00
2019,04,24,12,25,12.00
2019,04,24,12,26,12.00
2019,04,24,12,27,11.90
2019,04,24,12,28,11.90
2019,04,24,12,29,11.90
2019,04,24,12,30,12.00
2019,04,24,12,31,12.00
2019,04,24,12,32,12.00
2019,04,24,12,33,12.00
2019,04,24,12,34,12.00
2019,04,24,12,35,11.90
2019,04,24,12,36,12.00
2019,04,24,12,37,12.10
2019,04,24,12,38,12.20
2019,04,24,12,39,12.30
2019,04,24,12,40,12.40
2019,04,24,12,41,12.40
2019,04,24,12,42,12.40
2019,04,24,12,43,12.40
2019,04,24,12,44,12.50
2019,04,24,12,45,12.50
2019,04,24,12,46,12.60
2019,04,24,12,47,12.60
2019,04,24,12,48,12.60
2019,04,24,12,49,12.50
2019,04,24,12,50,12.50
2019,04,24,12,51,12.40
2019,04,24,12,52,12.30
2019,04,24,12,53,12.30
2019,04,24,12,54,12.20
2019,04,24,12,55,12.20
2019,04,24,12,56,12.20
2019,04,24,12,57,12.30
2019,04,24,12,58,12.40
2019,04,24,12,59,12.40
2019,04,24,13,00,12.50
2019,04,24,13,01,12.50
2019,04,24,13,02,12.40
2019,04,24,13,03,12.40
2019,04,24,13,04,12.30
2019,04,24,13,05,12.40
2019,04,24,13,06,12.30
2019,04,24,13,07,12.40
2019,04,24,13,08,12.40
2019,04,24,13,09,12.50
2019,04,24,13,10,12.60
2019,04,24,13,11,12.70
2019,04,24,13,12,12.80
2019,04,24,13,13,12.90
2019,04,24,13,14,13.00
2019,04,24,13,15,13.00
2019,04,24,13,16,13.00
2019,04,24,13,17,13.00
2019,04,24,13,18,13.10
2019,04,24,13,19,13.10
2019,04,24,13,20,13.20
2019,04,24,13,21,13.20
2019,04,24,13,22,13.20
2019,04,24,13,23,13.30
2019,04,24,13,24,13.30
2019,04,24,13,25,13.30
2019,04,24,13,26,13.30
2019,04,24,13,27,13.30
2019,04,24,13,28,13.30
2019,04,24,13,29,13.40
2019,04,24,13,30,13.40
2019,04,24,13,31,13.30
2019,04,24,13,32,13.20
2019,04,24,13,33,13.10
2019,04,24,13,34,13.00
2019,04,24,13,35,13.00
2019,04,24,13,36,12.90
2019,04,24,13,37,12.90
2019,04,24,13,38,12.90
2019,04,24,13,39,13.00
2019,04,24,13,40,13.00
2019,04,24,13,41,13.10
2019,04,24,13,42,13.10
2019,04,24,13,43,13.10
2019,04,24,13,44,13.10
2019,04,24,13,45,13.20
2019,04,24,13,46,13.20
2019,04,24,13,47,13.30
2019,04,24,13,48,13.30
2019,04,24,13,49,13.40
2019,04,24,13,50,13.40
2019,04,24,13,51,13.30
2019,04,24,13,52,13.30
2019,04,24,13,53,13.30
2019,04,24,13,54,13.30
2019,04,24,13,55,13.40
2019,04,24,13,56,13.50
2019,04,24,13,57,13.50
2019,04,24,13,58,13.60
2019,04,24,13,59,13.60
2019,04,24,14,00,13.60
2019,04,24,14,01,13.60
2019,04,24,14,02,13.60
2019,04,24,14,03,13.50
2019,04,24,14,04,13.50
2019,04,24,14,05,13.50
2019,04,24,14,06,13.50
2019,04,24,14,07,13.50
2019,04,24,14,08,13.50
2019,04,24,14,09,13.50
2019,04,24,14,10,13.50
2019,04,24,14,11,13.50
2019,04,24,14,12,13.40
2019,04,24,14,13,13.30
2019,04,24,14,14,13.30
2019,04,24,14,15,13.30
2019,04,24,14,16,13.30
2019,04,24,14,17,13.30
2019,04,24,14,18,13.30
2019,04,24,14,19,13.30
2019,04,24,14,20,13.40
2019,04,24,14,21,13.40
2019,04,24,14,22,13.40
2019,04,24,14,23,13.40
2019,04,24,14,24,13.40
2019,04,24,14,25,13.30
2019,04,24,14,26,13.20
2019,04,24,14,27,13.10
2019,04,24,14,28,13.20
2019,04,24,14,29,13.20
2019,04,24,14,30,13.20
2019,04,24,14,31,13.30
2019,04,24,14,32,13.40
2019,04,24,14,33,13.40
2019,04,24,14,34,13.50
2019,04,24,14,35,13.50
2019,04,24,14,36,13.60
2019,04,24,14,37,13.60
2019,04,24,14,38,13.60
2019,04,24,14,39,13.70
2019,04,24,14,40,13.80
2019,04,24,14,41,13.90
2019,04,24,14,42,13.90
2019,04,24,14,43,14.00
2019,04,24,14,44,14.00
2019,04,24,14,45,14.00
2019,04,24,14,46,14.00
2019,04,24,14,47,14.00
2019,04,24,14,48,14.00
2019,04,24,14,49,14.10
2019,04,24,14,50,14.10
2019,04,24,14,51,14.10
2019,04,24,14,52,14.10
2019,04,24,14,53,14.00
2019,04,24,14,54,14.00
2019,04,24,14,55,13.90
2019,04,24,14,56,13.90
2019,04,24,14,57,13.90
2019,04,24,14,58,13.80
2019,04,24,14,59,13.70
2019,04,24,15,00,13.70
2019,04,24,15,01,13.60
2019,04,24,15,02,13.60
2019,04,24,15,03,13.50
2019,04,24,15,04,13.50
2019,04,24,15,05,13.50
2019,04,24,15,06,13.40
2019,04,24,15,07,13.40
2019,04,24,15,08,13.30
2019,04,24,15,09,13.30
2019,04,24,15,10,13.30
2019,04,24,15,11,13.40
2019,04,24,15,12,13.40
2019,04,24,15,13,13.40
2019,04,24,15,14,13.40
2019,04,24,15,15,13.50
2019,04,24,15,16,13.50
2019,04,24,15,17,13.60
2019,04,24,15,18,13.70
2019,04,24,15,19,13.70
2019,04,24,15,20,13.80
2019,04,24,15,21,13.80
2019,04,24,15,22,13.70
2019,04,24,15,23,13.70
2019,04,24,15,24,13.70
2019,04,24,15,25,13.90
2019,04,24,15,26,14.00
2019,04,24,15,27,14.10
2019,04,24,15,28,14.10
2019,04,24,15,29,14.20
2019,04,24,15,30,14.30
2019,04,24,15,31,14.30
2019,04,24,15,32,14.40
2019,04,24,15,33,14.40
2019,04,24,15,34,14.40
2019,04,24,15,35,14.40
2019,04,24,15,36,14.40
2019,04,24,15,37,14.30
2019,04,24,15,38,14.30
2019,04,24,15,39,14.30
2019,04,24,15,40,14.30
2019,04,24,15,41,14.20
2019,04,24,15,42,14.20
2019,04,24,15,43,14.20
2019,04,24,15,44,14.20
2019,04,24,15,45,14.30
2019,04,24,15,46,14.20
2019,04,24,15,47,14.20
2019,04,24,15,48,14.20
2019,04,24,15,49,14.10
2019,04,24,15,50,14.10
2019,04,24,15,51,14.10
2019,04,24,15,52,14.10
2019,04,24,15,53,14.10
2019,04,24,15,54,14.20
2019,04,24,15,55,14.20
2019,04,24,15,56,14.30
2019,04,24,15,57,14.30
2019,04,24,15,58,14.30
2019,04,24,15,59,14.30
2019,04,24,16,00,14.30
2019,04,24,16,01,14.30
2019,04,24,16,02,14.30
2019,04,24,16,03,14.30
2019,04,24,16,04,14.30
2019,04,24,16,05,14.20
2019,04,24,16,06,14.20
2019,04,24,16,07,14.20
2019,04,24,16,08,14.30
2019,04,24,16,09,14.30
2019,04,24,16,10,14.30
2019,04,24,16,11,14.30
2019,04,24,16,12,14.40
2019,04,24,16,13,14.40
2019,04,24,16,14,14.40
2019,04,24,16,15,14.30
2019,04,24,16,16,14.30
2019,04,24,16,17,14.30
2019,04,24,16,18,14.40
2019,04,24,16,19,14.30
2019,04,24,16,20,14.30
2019,04,24,16,21,14.30
2019,04,24,16,22,14.30
2019,04,24,16,23,14.20
2019,04,24,16,24,14.20
2019,04,24,16,25,14.30
2019,04,24,16,26,14.30
2019,04,24,16,27,14.30
2019,04,24,16,28,14.20
2019,04,24,16,29,14.20
2019,04,24,16,30,14.20
2019,04,24,16,31,14.30
2019,04,24,16,32,14.30
2019,04,24,16,33,14.40
2019,04,24,16,34,14.40
2019,04,24,16,35,14.40
2019,04,24,16,36,14.40
2019,04,24,16,37,14.40
2019,04,24,16,38,14.40
2019,04,24,16,39,14.40
2019,04,24,16,40,14.40
2019,04,24,16,41,14.40
2019,04,24,16,42,14.40
2019,04,24,16,43,14.40
2019,04,24,16,44,14.40
2019,04,24,16,45,14.40
2019,04,24,16,46,14.50
2019,04,24,16,47,14.50
2019,04,24,16,48,14.60
2019,04,24,16,49,14.60
2019,04,24,16,50,14.60
2019,04,24,16,51,14.60
2019,04,24,16,52,14.50
2019,04,24,16,53,14.50
2019,04,24,16,54,14.40
2019,04,24,16,55,14.40
2019,04,24,16,56,14.30
2019,04,24,16,57,14.30
2019,04,24,16,58,14.30
2019,04,24,16,59,14.40
2019,04,24,17,00,14.50
2019,04,24,17,01,14.50
2019,04,24,17,02,14.60
2019,04,24,17,03,14.70
2019,04,24,17,04,14.80
2019,04,24,17,05,14.90
2019,04,24,17,06,14.90
2019,04,24,17,07,15.00
2019,04,24,17,08,15.00
2019,04,24,17,09,15.10
2019,04,24,17,10,15.10
2019,04,24,17,11,15.10
2019,04,24,17,12,15.10
2019,04,24,17,13,15.10
2019,04,24,17,14,15.20
2019,04,24,17,15,15.20
2019,04,24,17,16,15.30
2019,04,24,17,17,15.30
2019,04,24,17,18,15.30
2019,04,24,17,19,15.30
2019,04,24,17,20,15.40
2019,04,24,17,21,15.40
2019,04,24,17,22,15.40
2019,04,24,17,23,15.40
2019,04,24,17,24,15.40
2019,04,24,17,25,15.40
2019,04,24,17,26,15.40
2019,04,24,17,27,15.30
2019,04,24,17,28,15.30
2019,04,24,17,29,15.30
2019,04,24,17,30,15.30
2019,04,24,17,31,15.30
2019,04,24,17,32,15.30
2019,04,24,17,33,15.30
2019,04,24,17,34,15.30
2019,04,24,17,35,15.30
2019,04,24,17,36,15.30
2019,04,24,17,37,15.30
2019,04,24,17,38,15.30
2019,04,24,17,39,15.30
2019,04,24,17,40,15.30
2019,04,24,17,41,15.40
2019,04,24,17,42,15.40